Location: Mason
(37.5237°N, 89.2543°W)
Time: 08:21:00
(UTC+00:00)

Cosmos 158 Rocket - Pass Details

Date: 24 January 2021
Orbit: 698 x 794 km, 74.0° (Epoch: 08 March)

Event Time Altitude Azimuth Distance (km) Brightness Sun altitude
Rises 23:43:25 0° 347° (NNW) 3,277 7.2 -6.5°
Reaches altitude 10° 23:45:54 10° 354° (N) 2,354 6.4 -7.0°
Maximum altitude 23:51:05 48° 68° (ENE) 1,030 4.3 -8.0°
Drops below altitude 10° 23:56:16 10° 142° (SE) 2,354 6.3 -8.9°
Sets 23:58:44 0° 148° (SSE) 3,276 7.1 -9.4°
